Location: Central Falls
(41.8900°N, 71.3929°W)
Time: 04:14:34
(UTC+00:00)

Vanguard 2 Rocket - Pass Details

Date: 12 December 2023
Orbit: 555 x 3309 km, 32.9° (Epoch: 01 March)

Event Time Altitude Azimuth Distance (km) Brightness Sun altitude
Rises 14:39:15 0° 190° (S) 4,503 11.3 19.3°
Reaches altitude 10° 14:43:02 10° 173° (S) 3,958 11.7 19.7°
Maximum altitude 14:50:16 20° 132° (SE) 3,960 11.8 20.3°
Drops below altitude 10° 14:59:57 10° 94° (E) 5,528 11.3 21.1°
Sets 15:06:45 0° 80° (E) 6,951 11.6 21.6°
